When you browse on this site, cookies collect data to enhance your experience and personalize the content and advertising you see.
Visit our Privacy Policy to learn more. By continuing to use the site, you agree to this use of cookies and data.

Tiempo cada hora Pereymy

Hoy, 3 Julio, Viernes

Tiempo Temperatura Precipitaciones Viento Presión Humedad
00:00 +19°C° 0 mm 3 mps 737 mmHg 93%
01:00 +18°C° 0 mm 3 mps 738 mmHg 94%
02:00 +18°C° 0 mm 3 mps 738 mmHg 94%
03:00 +19°C° 0 mm 3 mps 738 mmHg 94%
04:00 +19°C° 0 mm 3 mps 738 mmHg 94%
05:00 +19°C° 0 mm 3 mps 738 mmHg 93%
06:00 +21°C° 0.4 mm 3 mps 738 mmHg 90%
07:00 +22°C° 0.4 mm 3 mps 738 mmHg 87%
08:00 +25°C° 0.4 mm 3 mps 739 mmHg 84%
09:00 +25°C° 0.9 mm 3 mps 739 mmHg 81%
10:00 +26°C° 0.9 mm 4 mps 739 mmHg 78%
11:00 +27°C° 0.9 mm 4 mps 739 mmHg 75%
12:00 +27°C° 1.5 mm 4 mps 739 mmHg 75%
13:00 +27°C° 1.5 mm 4 mps 739 mmHg 75%
14:00 +27°C° 1.5 mm 4 mps 739 mmHg 74%
15:00 +27°C° 1 mm 3 mps 739 mmHg 77%
16:00 +27°C° 1 mm 2 mps 738 mmHg 79%
17:00 +27°C° 1 mm 1 mps 738 mmHg 81%
18:00 +25°C° 0.2 mm 1 mps 738 mmHg 82%
19:00 +24°C° 0.2 mm 1 mps 738 mmHg 84%
20:00 +23°C° 0.2 mm 2 mps 738 mmHg 85%
21:00 +21°C° 0.1 mm 2 mps 738 mmHg 87%
22:00 +21°C° 0.1 mm 2 mps 738 mmHg 88%
23:00 +20°C° 0.1 mm 3 mps 738 mmHg 90%

Mañana, 4 Julio, Sábado

Tiempo Temperatura Precipitaciones Viento Presión Humedad
00:00 +20°C° 0 mm 3 mps 738 mmHg 90%
01:00 +19°C° 0 mm 3 mps 738 mmHg 90%
02:00 +19°C° 0 mm 3 mps 738 mmHg 90%
03:00 +19°C° 0 mm 3 mps 738 mmHg 90%
04:00 +19°C° 0 mm 3 mps 738 mmHg 90%
05:00 +19°C° 0 mm 3 mps 738 mmHg 90%
06:00 +21°C° 0 mm 2 mps 738 mmHg 86%
07:00 +24°C° 0 mm 2 mps 738 mmHg 82%
08:00 +25°C° 0 mm 2 mps 738 mmHg 78%
09:00 +26°C° 0.3 mm 3 mps 738 mmHg 75%
10:00 +27°C° 0.3 mm 3 mps 738 mmHg 71%
11:00 +28°C° 0.3 mm 3 mps 738 mmHg 68%
12:00 +28°C° 0.2 mm 3 mps 738 mmHg 68%
13:00 +28°C° 0.2 mm 3 mps 738 mmHg 68%
14:00 +28°C° 0.2 mm 3 mps 738 mmHg 68%
15:00 +28°C° 0.5 mm 2 mps 738 mmHg 72%
16:00 +27°C° 0.5 mm 2 mps 737 mmHg 76%
17:00 +27°C° 0.5 mm 2 mps 737 mmHg 81%
18:00 +25°C° 0.1 mm 2 mps 737 mmHg 83%
19:00 +24°C° 0.1 mm 1 mps 737 mmHg 85%
20:00 +20°C° 0.1 mm 0 mps 737 mmHg 88%
21:00 +22°C° 0.1 mm 1 mps 737 mmHg 88%
22:00 +22°C° 0.1 mm 1 mps 737 mmHg 89%
23:00 +21°C° 0.1 mm 1 mps 737 mmHg 89%

Pasado mañana, 5 Julio, Domingo

Tiempo Temperatura Precipitaciones Viento Presión Humedad
00:00 +20°C° 0.1 mm 2 mps 737 mmHg 90%
01:00 +19°C° 0.1 mm 2 mps 737 mmHg 90%
02:00 +19°C° 0.1 mm 2 mps 737 mmHg 91%
03:00 +19°C° 0.6 mm 2 mps 737 mmHg 92%
04:00 +20°C° 0.6 mm 1 mps 737 mmHg 93%
05:00 +20°C° 0.6 mm 1 mps 737 mmHg 94%
06:00 +20°C° 0.2 mm 1 mps 737 mmHg 93%
07:00 +21°C° 0.2 mm 1 mps 737 mmHg 91%
08:00 +21°C° 0.2 mm 1 mps 737 mmHg 90%
09:00 +22°C° 0.3 mm 1 mps 737 mmHg 88%
10:00 +23°C° 0.3 mm 2 mps 737 mmHg 85%
11:00 +24°C° 0.3 mm 2 mps 737 mmHg 83%
12:00 +24°C° 1.1 mm 2 mps 737 mmHg 83%
13:00 +25°C° 1.1 mm 2 mps 736 mmHg 83%
14:00 +25°C° 1.1 mm 2 mps 736 mmHg 83%
15:00 +25°C° 0.9 mm 2 mps 736 mmHg 85%
16:00 +24°C° 0.9 mm 2 mps 736 mmHg 87%
17:00 +24°C° 0.9 mm 2 mps 736 mmHg 88%
18:00 +23°C° 0.5 mm 2 mps 736 mmHg 90%
19:00 +21°C° 0.5 mm 3 mps 736 mmHg 92%
20:00 +20°C° 0.5 mm 3 mps 736 mmHg 95%
21:00 +20°C° 1.5 mm 3 mps 736 mmHg 96%
22:00 +19°C° 1.5 mm 2 mps 736 mmHg 97%
23:00 +19°C° 1.5 mm 2 mps 736 mmHg 97%

6 Julio, Lunes

Tiempo Temperatura Precipitaciones Viento Presión Humedad
00:00 +18°C° 0.3 mm 2 mps 736 mmHg 98%
01:00 +18°C° 0.3 mm 2 mps 736 mmHg 98%
02:00 +18°C° 0.3 mm 2 mps 736 mmHg 98%
03:00 +18°C° 0 mm 2 mps 736 mmHg 97%
04:00 +18°C° 0 mm 2 mps 736 mmHg 97%
05:00 +18°C° 0 mm 3 mps 736 mmHg 97%
06:00 +20°C° 0 mm 3 mps 736 mmHg 92%
07:00 +21°C° 0 mm 3 mps 736 mmHg 88%
08:00 +22°C° 0 mm 3 mps 736 mmHg 84%
09:00 +24°C° 0 mm 2 mps 737 mmHg 80%
10:00 +24°C° 0 mm 2 mps 737 mmHg 76%
11:00 +25°C° 0 mm 2 mps 737 mmHg 72%
12:00 +26°C° 0 mm 2 mps 737 mmHg 71%
13:00 +26°C° 0 mm 1 mps 736 mmHg 69%
14:00 +27°C° 0 mm 1 mps 736 mmHg 67%
15:00 +27°C° 0 mm 1 mps 736 mmHg 67%
16:00 +27°C° 0 mm 1 mps 736 mmHg 68%
17:00 +25°C° 0 mm 0 mps 736 mmHg 68%
18:00 +23°C° 0 mm 0 mps 736 mmHg 73%
19:00 +24°C° 0 mm 1 mps 736 mmHg 77%
20:00 +22°C° 0 mm 1 mps 736 mmHg 82%
21:00 +21°C° 0 mm 1 mps 736 mmHg 85%
22:00 +21°C° 0 mm 1 mps 736 mmHg 88%
23:00 +19°C° 0 mm 2 mps 736 mmHg 90%

7 Julio, Martes

Tiempo Temperatura Precipitaciones Viento Presión Humedad
00:00 +20°C° 0 mm 1 mps 736 mmHg 91%
01:00 +20°C° 0 mm 1 mps 736 mmHg 91%
02:00 +19°C° 0 mm 1 mps 736 mmHg 92%
03:00 +20°C° 0 mm 1 mps 736 mmHg 92%
04:00 +20°C° 0 mm 1 mps 736 mmHg 92%
05:00 +21°C° 0 mm 1 mps 736 mmHg 92%
06:00 +22°C° 0 mm 1 mps 736 mmHg 88%
07:00 +23°C° 0 mm 2 mps 736 mmHg 84%
08:00 +25°C° 0 mm 2 mps 736 mmHg 81%
09:00 +26°C° 0 mm 2 mps 735 mmHg 76%
10:00 +27°C° 0 mm 2 mps 735 mmHg 72%
11:00 +28°C° 0 mm 2 mps 735 mmHg 67%
12:00 +28°C° 0 mm 2 mps 735 mmHg 66%
13:00 +29°C° 0 mm 2 mps 734 mmHg 65%
14:00 +30°C° 0 mm 2 mps 734 mmHg 63%
15:00 +30°C° 0 mm 2 mps 734 mmHg 66%
16:00 +30°C° 0 mm 1 mps 734 mmHg 68%
17:00 +29°C° 0 mm 1 mps 733 mmHg 71%
18:00 +27°C° 2.3 mm 2 mps 733 mmHg 76%
19:00 +25°C° 2.3 mm 2 mps 733 mmHg 82%
20:00 +22°C° 2.3 mm 3 mps 733 mmHg 88%
21:00 +23°C° 1.1 mm 2 mps 733 mmHg 88%
22:00 +21°C° 1.1 mm 2 mps 733 mmHg 88%
23:00 +22°C° 1.1 mm 1 mps 732 mmHg 88%

8 Julio, Miércoles

Tiempo Temperatura Precipitaciones Viento Presión Humedad
00:00 +20°C° 1.5 mm 2 mps 732 mmHg 89%
01:00 +20°C° 1.5 mm 2 mps 732 mmHg 90%
02:00 +20°C° 1.5 mm 2 mps 732 mmHg 91%
03:00 +20°C° 0.8 mm 3 mps 732 mmHg 93%
04:00 +19°C° 0.8 mm 3 mps 732 mmHg 94%
05:00 +19°C° 0.8 mm 4 mps 732 mmHg 96%
06:00 +20°C° 0.1 mm 4 mps 733 mmHg 94%
07:00 +20°C° 0.1 mm 4 mps 733 mmHg 93%
08:00 +21°C° 0.1 mm 4 mps 733 mmHg 92%
09:00 +21°C° 0 mm 5 mps 733 mmHg 91%
10:00 +21°C° 0 mm 5 mps 733 mmHg 90%
11:00 +21°C° 0 mm 6 mps 734 mmHg 88%
12:00 +21°C° 0.1 mm 5 mps 734 mmHg 88%
13:00 +21°C° 0.1 mm 5 mps 734 mmHg 87%
14:00 +21°C° 0.1 mm 5 mps 734 mmHg 87%
15:00 +21°C° 0.1 mm 5 mps 734 mmHg 86%
16:00 +21°C° 0.1 mm 5 mps 734 mmHg 86%
17:00 +21°C° 0.1 mm 5 mps 734 mmHg 85%
18:00 +20°C° 0 mm 4 mps 734 mmHg 87%
19:00 +19°C° 0 mm 3 mps 734 mmHg 89%
20:00 +18°C° 0 mm 3 mps 735 mmHg 92%
21:00 +18°C° 0 mm 3 mps 735 mmHg 91%
22:00 +17°C° 0 mm 3 mps 735 mmHg 90%
23:00 +16°C° 0 mm 3 mps 734 mmHg 90%
Mostrar más